DECAYED

OBJECT B, 59678 (Decayed)

Orbit data source: Space-Track

You're viewing an Uncataloged Satellite

Recently launched and/or uncataloged satellites may have evolving metadata. Metadata may include but not limited to: Owner, Maufacturer, Bus, Motor, and Mission.

OBJECT B, 59678 was a satellite owned by SMART (CN) in SSO that was launched on Tue, 07 May 2024 UTC via a CHANG ZHENG 6C launch vehicle from the Taiyaun Space Center, China (TSC). Unknown objects in Earth's orbit typically refer to objects detected orbiting the Earth but have not yet been identified or cataloged. These objects could be anything from previously untracked satellites, spent rocket stages, debris from satellite collisions, or even natural meteoroids temporarily captured by Earth's gravity. This object's orbit decayed before it could be identified.

Not visible in the next 10 days
Identifier
59678, 2024-085B
Orbit
Decayed
Country
Flag of CNCN / PRC
Related business
Flag of CNBeijing Smart Satellite Technology Co Ltd. (CN)
Manufacturer
SMART
Mission
Decayed Commercial Radar Imaging
Bus & Motor
ZX-1B, Unknown motor
Mass
~50 kg wet, ~50 kg dry
Launch date (UTC)
2024-05-07 (2 years ago)
Launch vehicle
CHANG ZHENG 6C
Launch site
Taiyaun Space Center, China (TSC)
Object type
Unknown
Shape & HBR
Box + 2 Pan, 0.5 m
Radar Cross Section
0.255 m², Medium (>0.1 m² and < 1m²)

Expand to show TLE details & history
Last TLE update: 3 months ago

TLE from 3 months ago
0 OBJECT B
1 59678U 24085B   26075.66092898  .01502157  23744-5  10923-2 0  9995
2 59678  97.3336 168.8225 0016385 296.7811  63.1799 16.15444361104530
Epoch: 2026-03-16T15:51Z
TLE epoch observation values (Epoch: 2026-03-16T15:51:44.263Z)
Latitude
-0.00005°
Longitude
116.63787°
Altitude
230.297 km
Speed
7.771 km/s
True Right ascension
11h 15m 17s
True Declination
0° 00' 00"
Sunlit
Object was in full shadow at epoch
Visualization orbit readout
Latitude
Unknown
Longitude
Unknown
Altitude
Unknown
Speed
Unknown
Apparent Right ascension
Unknown
Apparent Declination
Unknown
Sunlit
N/A
Visualization observer readout
Local Sidereal Time
21:45:19
Azimuth
Unknown
Elevation
Unknown
Doppler factor
Unknown
Orbital elements
Apogee altitude
239.612 km
Perigee altitude
217.961 km
Semi-major axis
6,606.924 km
Eccentricity
0.00164
Inclination
97.3336°
RAAN
168.8225°
Arg. of periapsis
296.7811°
True anomaly
63.34762°
Mean anomaly
63.1799°
Eccentric anomaly
63.26374°
Mean motion
4.04152 °/min
Orbital period
89.08 mins
BSTAR
0.0010923
Loading maneuver chart data...
Computing Atmospheric mass density...
Loading historical data...
Loading historical data...
Loading historical data...
Loading historical data...
Loading historical data...
Loading historical data...
Loading historical data...

Documentation

Showing up to 5 results
|